Hibbing, MN

9:24 PM CST on December 15, 2017 (GMT -0600)
Chisholm-hibbing

Weather History for KHIB - December, 2011

Change the Weather History Date:

Friday, December 30, 2011

  Actual Average Record
Temperature  
Mean Temperature 14 °F -  
Max Temperature 24 °F 14 °F 51 °F (1996)
Min Temperature 3 °F -4 °F -35 °F (1976)
Degree Days  
Heating Degree Days 52    
Moisture  
Dew Point 12 °F    
Average Humidity 85    
Maximum Humidity 93    
Minimum Humidity 71    
Precipitation  
Precipitation 0.00 in - - ()
Sea Level Pressure  
Sea Level Pressure 29.79 in    
Wind  
Wind Speed 3 mph (East)    
Max Wind Speed 7 mph    
Max Gust Speed -    
Visibility 10 miles    
Events      
Averages and records for this station are not official NWS values.
T = Trace of Precipitation, MM = Missing Value Source: NWS Daily Summary

Daily Weather History Graph

Daily Weather History Graph

Search for Another Location

Airport or City:

Trip Planner

Search our weather history database for the weather conditions in past years. The results will help you decide how hot, cold, wet, or windy it might be!

Date:

Astronomy

Dec. 30, 2011 Rise Set
Actual Time 7:58 AM CST 4:29 PM CST
Civil Twilight 7:22 AM CST 5:04 PM CST
Nautical Twilight 6:43 AM CST 5:43 PM CST
Astronomical Twilight 6:06 AM CST 6:21 PM CST
Moon 10:51 AM CST (12/30) 11:34 PM CST (12/30)
Length of Visible Light 9h 42m
Length of Day
8h 30m
Waxing Crescent, 36% of the Moon is Illuminated
Dec 30
Waxing Crescent
Jan 1
First Quarter
Jan 9
Full
Jan 16
Last Quarter
Jan 23
New

Hourly Weather History & Observations

Time (CST) Temp. Windchill Dew Point Humidity Pressure Visibility Wind Dir Wind Speed Gust Speed Precip Events Conditions
12:53 AM 18.0 °F 9.8 °F 14.0 °F 84% 29.72 in 10.0 mi SE 5.8 mph - N/A   Overcast
1:28 AM 17.6 °F 8.2 °F 15.8 °F 93% 29.65 in 10.0 mi SE 6.9 mph - N/A   Overcast
1:53 AM 18.0 °F 12.7 °F 15.1 °F 88% 29.73 in 10.0 mi ESE 3.5 mph - N/A   Overcast
2:53 AM 18.0 °F 9.8 °F 15.1 °F 88% 29.74 in 10.0 mi ESE 5.8 mph - N/A   Overcast
3:53 AM 17.1 °F 8.7 °F 15.1 °F 92% 29.74 in 10.0 mi East 5.8 mph - N/A   Overcast
4:53 AM 17.1 °F 10.0 °F 14.0 °F 88% 29.73 in 10.0 mi ESE 4.6 mph - N/A   Overcast
5:53 AM 17.1 °F 8.7 °F 15.1 °F 92% 29.74 in 10.0 mi ENE 5.8 mph - N/A   Overcast
6:53 AM 16.0 °F 8.8 °F 14.0 °F 92% 29.77 in 10.0 mi East 4.6 mph - N/A   Overcast
7:53 AM 16.0 °F - 14.0 °F 92% 29.78 in 10.0 mi Calm Calm - N/A   Overcast
8:53 AM 16.0 °F 7.4 °F 14.0 °F 92% 29.80 in 10.0 mi East 5.8 mph - N/A   Overcast
9:53 AM 17.1 °F 11.7 °F 14.0 °F 88% 29.81 in 10.0 mi East 3.5 mph - N/A   Overcast
10:53 AM 19.9 °F - 15.1 °F 81% 29.82 in 10.0 mi Calm Calm - N/A   Overcast
11:13 AM 19.4 °F - 15.8 °F 86% 29.73 in 10.0 mi Calm Calm - N/A   Overcast
11:53 AM 21.2 °F - 15.8 °F 80% 29.72 in 10.0 mi Calm Calm - N/A   Mostly Cloudy
12:01 PM 21.2 °F - 15.8 °F 80% 29.72 in 10.0 mi Calm Calm - N/A   Partly Cloudy
12:53 PM 21.9 °F - 16.0 °F 78% 29.78 in 10.0 mi Calm Calm - N/A   Overcast
1:53 PM 24.1 °F - 16.0 °F 71% 29.79 in 10.0 mi Calm Calm - N/A   Scattered Clouds
2:53 PM 24.1 °F - 16.0 °F 71% 29.81 in 10.0 mi Calm Calm - N/A   Clear
3:53 PM 23.0 °F 18.4 °F 16.0 °F 74% 29.83 in 10.0 mi NNW 3.5 mph - N/A   Clear
4:53 PM 18.0 °F - 12.9 °F 81% 29.86 in 10.0 mi Calm Calm - N/A   Scattered Clouds
5:53 PM 14.0 °F - 10.9 °F 88% 29.86 in 10.0 mi Calm Calm - N/A   Partly Cloudy
6:53 PM 8.1 °F - 6.1 °F 92% 29.86 in 10.0 mi Calm Calm - N/A   Clear
7:53 PM 8.1 °F - 6.1 °F 92% 29.86 in 10.0 mi Calm Calm - N/A   Clear
8:53 PM 5.0 °F - 1.9 °F 87% 29.86 in 8.0 mi Calm Calm - N/A   Clear
9:53 PM 3.0 °F - -0.9 °F 84% 29.88 in 10.0 mi Calm Calm - N/A   Clear
10:53 PM 5.0 °F - 1.0 °F 84% 29.88 in 10.0 mi Calm Calm - N/A   Clear
11:53 PM 3.0 °F - -0.9 °F 84% 29.87 in 10.0 mi Calm Calm - N/A   Clear